START_TIME,STEP,MOV.,P11,t_acc.,P23,t_acc.,P27,t_acc.,A4,t_acc.
1981-08-28 15:00:23.800 ,3,0,0.,4.8,0.,4.8,0.,4.8,0.,4.8
1981-08-28 15:00:28.600 ,3,0,0.,4.8,0.,4.8,0.,4.8,0.,4.8
1981-08-28 15:00:33.400 ,3,0,1.,4.8,0.,4.8,0.,4.8,0.,4.8
1981-08-28 15:00:38.200 ,3,0,1.,4.8,0.,4.8,0.,4.8,0.,4.8
1981-08-28 15:00:43.000 ,3,0,0.,4.8,0.,4.8,0.,4.8,0.,4.8
1981-08-28 15:00:47.800 ,4,0,0.,4.8,0.,4.8,0.,4.8,0.,4.8
1981-08-28 15:00:52.600 ,4,0,0.,4.8,0.,4.8,0.,4.8,0.,4.8
1981-08-28 15:00:57.400 ,4,0,0.,4.8,0.,4.8,0.,4.8,0.,4.8
1981-08-28 15:01:02.200 ,4,0,0.,4.8,0.,4.8,0.,4.8,0.,4.8
1981-08-28 15:01:07.000 ,4,0,0.,4.8,0.,4.8,0.,4.8,0.,4.8
1981-08-28 15:01:11.800 ,4,0,1.,4.8,0.,4.8,0.,4.8,0.,4.8
1981-08-28 15:01:16.600 ,4,0,0.,4.8,0.,4.8,0.,4.8,0.,4.8
1981-08-28 15:01:21.400 ,4,0,0.,4.8,0.,4.8,0.,4.8,0.,4.8
1981-08-28 15:01:26.200 ,4,0,0.,4.8,0.,4.8,0.,4.8,0.,4.8
1981-08-28 15:01:31.000 ,4,0,0.,4.8,0.,4.8,0.,4.8,0.,4.8
1981-08-28 15:01:35.800 ,5,0,0.,4.8,0.,4.8,1.,4.8,0.,4.8
1981-08-28 15:01:40.600 ,5,0,1.,4.8,0.,4.8,0.,4.8,0.,4.8
1981-08-28 15:01:45.400 ,5,0,0.,4.8,0.,4.8,0.,4.8,0.,4.8
1981-08-28 15:01:50.200 ,5,0,2.,4.8,0.,4.8,0.,4.8,0.,4.8
1981-08-28 15:01:55.000 ,5,0,0.,4.8,0.,4.8,0.,4.8,0.,4.8
1981-08-28 15:01:59.800 ,5,0,0.,4.8,0.,4.8,0.,4.8,0.,4.8
1981-08-28 15:02:04.600 ,5,0,0.,4.8,0.,4.8,0.,4.8,0.,4.8
1981-08-28 15:02:09.400 ,5,0,0.,4.8,0.,4.8,0.,4.8,0.,4.8
1981-08-28 15:02:14.200 ,5,0,0.,4.8,0.,4.8,0.,4.8,0.,4.8
1981-08-28 15:02:19.000 ,5,0,0.,4.8,0.,4.8,0.,4.8,0.,4.8
1981-08-28 15:02:23.800 ,6,0,0.,4.8,0.,4.8,0.,4.8,0.,4.8
1981-08-28 15:02:28.600 ,6,0,1.,4.8,0.,4.8,0.,4.8,0.,4.8
1981-08-28 15:02:33.400 ,6,0,1.,4.8,0.,4.8,0.,4.8,0.,4.8
1981-08-28 15:02:38.200 ,6,0,0.,4.8,0.,4.8,0.,4.8,0.,4.8
1981-08-28 15:02:43.000 ,6,0,1.,4.8,0.,4.8,0.,4.8,0.,4.8
1981-08-28 15:02:47.800 ,6,0,1.,4.8,0.,4.8,1.,4.8,0.,4.8
1981-08-28 15:02:52.600 ,6,0,0.,4.8,0.,4.8,0.,4.8,0.,4.8
1981-08-28 15:02:57.400 ,6,0,1.,4.8,0.,4.8,0.,4.8,0.,4.8
1981-08-28 15:03:02.200 ,6,0,1.,4.8,0.,4.8,0.,4.8,0.,4.8
1981-08-28 15:03:07.000 ,6,0,2.,4.8,0.,4.8,1.,4.8,0.,4.8
1981-08-28 15:03:11.800 ,7,0,1.,4.8,0.,4.8,0.,4.8,0.,4.8
1981-08-28 15:03:16.600 ,7,0,0.,4.8,0.,4.8,0.,4.8,0.,4.8
1981-08-28 15:03:21.400 ,7,0,0.,4.8,0.,4.8,0.,4.8,0.,4.8
1981-08-28 15:03:26.200 ,7,0,0.,4.8,0.,4.8,0.,4.8,0.,4.8
1981-08-28 15:03:31.000 ,7,0,1.,4.8,0.,4.8,0.,4.8,0.,4.8
1981-08-28 15:03:35.800 ,7,0,0.,4.8,1.,4.8,0.,4.8,0.,4.8
1981-08-28 15:03:40.600 ,7,0,0.,4.8,0.,4.8,0.,4.8,0.,4.8
1981-08-28 15:03:45.400 ,7,0,0.,4.8,0.,4.8,0.,4.8,0.,4.8
1981-08-28 15:03:50.200 ,7,0,0.,4.8,0.,4.8,0.,4.8,0.,4.8
1981-08-28 15:03:55.000 ,7,0,0.,4.8,0.,4.8,0.,4.8,0.,4.8
1981-08-28 15:03:59.800 ,7,0,0.,4.8,0.,4.8,0.,4.8,0.,4.8
1981-08-28 15:04:04.600 ,7,0,0.,4.8,0.,4.8,0.,4.8,0.,4.8
1981-08-28 15:04:09.400 ,7,0,0.,4.8,0.,4.8,0.,4.8,0.,4.8
1981-08-28 15:04:14.200 ,7,0,0.,4.8,0.,4.8,0.,4.8,0.,4.8
1981-08-28 15:04:19.000 ,7,0,0.,4.8,0.,4.8,0.,4.8,0.,4.8
1981-08-28 15:04:23.800 ,6,0,0.,4.8,0.,4.8,1.,4.8,0.,4.8
1981-08-28 15:04:28.600 ,6,0,1.,4.8,0.,4.8,0.,4.8,0.,4.8
1981-08-28 15:04:33.400 ,6,0,2.,4.8,0.,4.8,1.,4.8,0.,4.8
1981-08-28 15:04:38.200 ,6,0,0.,4.8,0.,4.8,0.,4.8,0.,4.8
1981-08-28 15:04:43.000 ,6,0,2.,4.8,0.,4.8,0.,4.8,0.,4.8
1981-08-28 15:04:47.800 ,5,0,4.,4.8,0.,4.8,1.,4.8,0.,4.8
1981-08-28 15:04:52.600 ,5,0,0.,4.8,0.,4.8,0.,4.8,0.,4.8
1981-08-28 15:04:57.400 ,5,0,0.,4.8,0.,4.8,0.,4.8,0.,4.8
1981-08-28 15:05:02.200 ,5,0,1.,4.8,0.,4.8,0.,4.8,0.,4.8
1981-08-28 15:05:07.000 ,5,0,0.,4.8,0.,4.8,0.,4.8,0.,4.8
1981-08-28 15:05:11.800 ,4,0,0.,4.8,0.,4.8,0.,4.8,0.,4.8
1981-08-28 15:05:16.600 ,4,0,0.,4.8,0.,4.8,0.,4.8,0.,4.8
1981-08-28 15:05:21.400 ,4,0,1.,4.8,0.,4.8,0.,4.8,0.,4.8
1981-08-28 15:05:26.200 ,4,0,0.,4.8,0.,4.8,0.,4.8,0.,4.8
1981-08-28 15:05:31.000 ,4,0,0.,4.8,0.,4.8,0.,4.8,0.,4.8
1981-08-28 15:05:35.800 ,3,0,0.,4.8,0.,4.8,0.,4.8,0.,4.8
1981-08-28 15:05:40.600 ,3,0,0.,4.8,0.,4.8,0.,4.8,0.,4.8
1981-08-28 15:05:45.400 ,3,0,0.,4.8,0.,4.8,0.,4.8,0.,4.8
1981-08-28 15:05:50.200 ,3,0,0.,4.8,0.,4.8,0.,4.8,0.,4.8
1981-08-28 15:05:55.000 ,3,0,0.,4.8,0.,4.8,0.,4.8,0.,4.8
1981-08-28 15:05:59.800 ,2,0,0.,4.8,0.,4.8,0.,4.8,0.,4.8
1981-08-28 15:06:04.600 ,2,0,0.,4.8,0.,4.8,0.,4.8,0.,4.8
1981-08-28 15:06:09.400 ,2,0,0.,4.8,0.,4.8,1.,4.8,0.,4.8
1981-08-28 15:06:14.200 ,2,0,0.,4.8,0.,4.8,0.,4.8,0.,4.8
1981-08-28 15:06:19.000 ,2,0,0.,4.8,0.,4.8,0.,4.8,0.,4.8
1981-08-28 15:06:23.800 ,1,0,0.,4.8,0.,4.8,0.,4.8,0.,4.8
1981-08-28 15:06:28.600 ,1,0,0.,4.8,1.,4.8,0.,4.8,0.,4.8
1981-08-28 15:06:33.400 ,1,0,2.,4.8,0.,4.8,0.,4.8,0.,4.8
1981-08-28 15:06:38.200 ,1,0,0.,4.8,0.,4.8,0.,4.8,0.,4.8
1981-08-28 15:06:43.000 ,1,0,1.,4.8,0.,4.8,0.,4.8,0.,4.8
1981-08-28 15:06:47.800 ,0,0,1.,4.8,1.,4.8,0.,4.8,0.,4.8
1981-08-28 15:06:52.600 ,0,0,0.,4.8,0.,4.8,0.,4.8,0.,4.8
1981-08-28 15:06:57.400 ,0,0,1.,4.8,0.,4.8,0.,4.8,0.,4.8
1981-08-28 15:07:02.200 ,0,0,2.,4.8,0.,4.8,0.,4.8,0.,4.8
1981-08-28 15:07:07.000 ,0,0,0.,4.8,0.,4.8,0.,4.8,0.,4.8
1981-08-28 15:07:11.800 ,0,0,0.,4.8,0.,4.8,0.,4.8,0.,4.8
1981-08-28 15:07:16.600 ,0,0,1.,4.8,0.,4.8,0.,4.8,0.,4.8
1981-08-28 15:07:21.400 ,0,0,1.,4.8,0.,4.8,0.,4.8,0.,4.8
1981-08-28 15:07:26.200 ,0,0,0.,4.8,0.,4.8,0.,4.8,0.,4.8
1981-08-28 15:07:31.000 ,0,0,0.,4.8,0.,4.8,0.,4.8,0.,4.8
1981-08-28 15:07:35.800 ,1,0,0.,4.8,0.,4.8,0.,4.8,0.,4.8
1981-08-28 15:07:40.600 ,1,0,0.,4.8,0.,4.8,0.,4.8,0.,4.8
1981-08-28 15:07:45.400 ,1,0,0.,4.8,0.,4.8,0.,4.8,0.,4.8
1981-08-28 15:07:50.200 ,1,0,0.,4.8,0.,4.8,0.,4.8,0.,4.8
1981-08-28 15:07:55.000 ,1,0,0.,4.8,0.,4.8,0.,4.8,0.,4.8
1981-08-28 15:07:59.800 ,2,0,1.,4.8,0.,4.8,0.,4.8,0.,4.8
1981-08-28 15:08:04.600 ,2,0,0.,4.8,0.,4.8,0.,4.8,0.,4.8
1981-08-28 15:08:09.400 ,2,0,1.,4.8,0.,4.8,0.,4.8,0.,4.8
1981-08-28 15:08:14.200 ,2,0,2.,4.8,0.,4.8,0.,4.8,0.,4.8
1981-08-28 15:08:19.000 ,2,0,0.,4.8,0.,4.8,0.,4.8,0.,4.8
1981-08-28 15:08:23.800 ,3,0,0.,4.8,0.,4.8,0.,4.8,0.,4.8
1981-08-28 15:08:28.600 ,3,0,1.,4.8,0.,4.8,0.,4.8,0.,4.8
1981-08-28 15:08:33.400 ,3,0,0.,4.8,0.,4.8,0.,4.8,0.,4.8
1981-08-28 15:08:38.200 ,3,0,0.,4.8,0.,4.8,0.,4.8,0.,4.8
1981-08-28 15:08:43.000 ,3,0,1.,4.8,0.,4.8,0.,4.8,0.,4.8
1981-08-28 15:08:47.800 ,4,0,0.,4.8,0.,4.8,0.,4.8,0.,4.8
1981-08-28 15:08:52.600 ,4,0,0.,4.8,0.,4.8,0.,4.8,0.,4.8
1981-08-28 15:08:57.400 ,4,0,0.,4.8,1.,4.8,0.,4.8,0.,4.8
1981-08-28 15:09:02.200 ,4,0,0.,4.8,0.,4.8,0.,4.8,0.,4.8
1981-08-28 15:09:07.000 ,4,0,0.,4.8,0.,4.8,1.,4.8,0.,4.8
1981-08-28 15:09:11.800 ,5,0,0.,4.8,0.,4.8,0.,4.8,0.,4.8
1981-08-28 15:09:16.600 ,5,0,1.,4.8,0.,4.8,0.,4.8,0.,4.8
1981-08-28 15:09:21.400 ,5,0,1.,4.8,0.,4.8,0.,4.8,0.,4.8
1981-08-28 15:09:26.200 ,5,0,0.,4.8,0.,4.8,0.,4.8,0.,4.8
1981-08-28 15:09:31.000 ,5,0,0.,4.8,0.,4.8,0.,4.8,0.,4.8
1981-08-28 15:09:35.800 ,6,0,2.,4.8,0.,4.8,0.,4.8,0.,4.8
1981-08-28 15:09:40.600 ,6,0,0.,4.8,0.,4.8,0.,4.8,0.,4.8
1981-08-28 15:09:45.400 ,6,0,0.,4.8,0.,4.8,0.,4.8,0.,4.8
1981-08-28 15:09:50.200 ,6,0,0.,4.8,0.,4.8,0.,4.8,0.,4.8
1981-08-28 15:09:55.000 ,6,0,0.,4.8,0.,4.8,0.,4.8,0.,4.8
1981-08-28 15:09:59.800 ,7,0,1.,4.8,0.,4.8,0.,4.8,0.,4.8
1981-08-28 15:10:04.600 ,7,0,0.,4.8,0.,4.8,0.,4.8,0.,4.8
1981-08-28 15:10:09.400 ,7,0,0.,4.8,0.,4.8,0.,4.8,0.,4.8
1981-08-28 15:10:14.200 ,7,0,2.,4.8,0.,4.8,0.,4.8,0.,4.8
1981-08-28 15:10:19.000 ,7,0,1.,4.8,0.,4.8,0.,4.8,0.,4.8
1981-08-28 15:10:23.800 ,7,0,1.,4.8,0.,4.8,0.,4.8,0.,4.8
1981-08-28 15:10:28.600 ,7,0,2.,4.8,0.,4.8,0.,4.8,0.,4.8
1981-08-28 15:10:33.400 ,7,0,0.,4.8,0.,4.8,0.,4.8,0.,4.8
1981-08-28 15:10:38.200 ,7,0,0.,4.8,0.,4.8,0.,4.8,0.,4.8
1981-08-28 15:10:43.000 ,7,0,0.,4.8,0.,4.8,0.,4.8,0.,4.8
1981-08-28 15:10:47.800 ,7,0,0.,4.8,0.,4.8,0.,4.8,0.,4.8
1981-08-28 15:10:52.600 ,7,0,0.,4.8,0.,4.8,0.,4.8,0.,4.8
1981-08-28 15:10:57.400 ,7,0,0.,4.8,0.,4.8,0.,4.8,0.,4.8
1981-08-28 15:11:02.200 ,7,0,0.,4.8,0.,4.8,0.,4.8,0.,4.8
1981-08-28 15:11:07.000 ,7,0,0.,4.8,0.,4.8,0.,4.8,0.,4.8
1981-08-28 15:11:11.800 ,6,0,0.,4.8,0.,4.8,0.,4.8,0.,4.8
1981-08-28 15:11:16.600 ,6,0,1.,4.8,0.,4.8,0.,4.8,0.,4.8
1981-08-28 15:11:21.400 ,6,0,0.,4.8,0.,4.8,0.,4.8,0.,4.8
1981-08-28 15:11:26.200 ,6,0,1.,4.8,0.,4.8,0.,4.8,0.,4.8
1981-08-28 15:11:31.000 ,6,0,0.,4.8,0.,4.8,0.,4.8,0.,4.8
1981-08-28 15:11:35.800 ,6,0,1.,4.8,0.,4.8,0.,4.8,0.,4.8
1981-08-28 15:11:40.600 ,6,0,0.,4.8,0.,4.8,0.,4.8,0.,4.8
1981-08-28 15:11:45.400 ,6,0,1.,4.8,0.,4.8,0.,4.8,0.,4.8
1981-08-28 15:11:50.200 ,6,0,0.,4.8,0.,4.8,0.,4.8,0.,4.8
1981-08-28 15:11:55.000 ,6,0,0.,4.8,0.,4.8,0.,4.8,0.,4.8
1981-08-28 15:11:59.800 ,5,0,0.,4.8,0.,4.8,0.,4.8,0.,4.8
1981-08-28 15:12:04.600 ,5,0,0.,4.8,0.,4.8,0.,4.8,0.,4.8
1981-08-28 15:12:09.400 ,5,0,0.,4.8,0.,4.8,0.,4.8,0.,4.8
1981-08-28 15:12:14.200 ,5,0,1.,4.8,0.,4.8,0.,4.8,0.,4.8
1981-08-28 15:12:19.000 ,5,0,1.,4.8,0.,4.8,0.,4.8,0.,4.8
1981-08-28 15:12:23.800 ,5,0,0.,4.8,0.,4.8,0.,4.8,0.,4.8
1981-08-28 15:12:28.600 ,5,0,0.,4.8,0.,4.8,0.,4.8,0.,4.8
1981-08-28 15:12:33.400 ,5,0,1.,4.8,0.,4.8,0.,4.8,0.,4.8
1981-08-28 15:12:38.200 ,5,0,1.,4.8,0.,4.8,0.,4.8,0.,4.8
1981-08-28 15:12:43.000 ,5,0,0.,4.8,0.,4.8,0.,4.8,0.,4.8
1981-08-28 15:12:47.800 ,4,0,2.,4.8,0.,4.8,0.,4.8,0.,4.8
1981-08-28 15:12:52.600 ,4,0,0.,4.8,0.,4.8,0.,4.8,0.,4.8
1981-08-28 15:12:57.400 ,4,0,1.,4.8,0.,4.8,0.,4.8,0.,4.8
1981-08-28 15:13:02.200 ,4,0,0.,4.8,0.,4.8,0.,4.8,0.,4.8
1981-08-28 15:13:07.000 ,4,0,0.,4.8,0.,4.8,0.,4.8,0.,4.8
1981-08-28 15:13:11.800 ,4,0,0.,4.8,0.,4.8,0.,4.8,0.,4.8
1981-08-28 15:13:16.600 ,4,0,0.,4.8,0.,4.8,0.,4.8,0.,4.8
1981-08-28 15:13:21.400 ,4,0,0.,4.8,0.,4.8,1.,4.8,0.,4.8
1981-08-28 15:13:26.200 ,4,0,1.,4.8,0.,4.8,0.,4.8,0.,4.8
1981-08-28 15:13:31.000 ,4,0,0.,4.8,0.,4.8,0.,4.8,0.,4.8
1981-08-28 15:13:35.800 ,3,0,0.,4.8,0.,4.8,0.,4.8,0.,4.8
1981-08-28 15:13:40.600 ,3,0,1.,4.8,0.,4.8,0.,4.8,0.,4.8
1981-08-28 15:13:45.400 ,3,0,0.,4.8,0.,4.8,0.,4.8,0.,4.8
1981-08-28 15:13:50.200 ,3,0,0.,4.8,0.,4.8,0.,4.8,0.,4.8
1981-08-28 15:13:55.000 ,3,0,0.,4.8,0.,4.8,0.,4.8,0.,4.8
1981-08-28 15:13:59.800 ,3,0,0.,4.8,0.,4.8,0.,4.8,0.,4.8
1981-08-28 15:14:04.600 ,3,0,0.,4.8,0.,4.8,0.,4.8,0.,4.8
1981-08-28 15:14:09.400 ,3,0,1.,4.8,1.,4.8,0.,4.8,0.,4.8
1981-08-28 15:14:14.200 ,3,0,0.,4.8,0.,4.8,0.,4.8,0.,4.8
1981-08-28 15:14:19.000 ,3,0,0.,4.8,0.,4.8,0.,4.8,0.,4.8
1981-08-28 15:14:23.800 ,2,0,0.,4.8,0.,4.8,0.,4.8,0.,4.8
1981-08-28 15:14:28.600 ,2,0,0.,4.8,0.,4.8,0.,4.8,0.,4.8
1981-08-28 15:14:33.400 ,2,0,0.,4.8,0.,4.8,0.,4.8,0.,4.8
1981-08-28 15:14:38.200 ,2,0,0.,4.8,0.,4.8,1.,4.8,0.,4.8
1981-08-28 15:14:43.000 ,2,0,0.,4.8,0.,4.8,0.,4.8,0.,4.8
1981-08-28 15:14:47.800 ,2,0,0.,4.8,0.,4.8,0.,4.8,0.,4.8
1981-08-28 15:14:52.600 ,2,0,0.,4.8,1.,4.8,0.,4.8,0.,4.8
1981-08-28 15:14:57.400 ,2,0,0.,4.8,0.,4.8,0.,4.8,0.,4.8
1981-08-28 15:15:02.200 ,2,0,0.,4.8,0.,4.8,1.,4.8,0.,4.8
1981-08-28 15:15:07.000 ,2,0,0.,4.8,0.,4.8,0.,4.8,0.,4.8
1981-08-28 15:15:11.800 ,1,0,1.,4.8,0.,4.8,0.,4.8,0.,4.8
1981-08-28 15:15:16.600 ,1,0,1.,4.8,0.,4.8,0.,4.8,0.,4.8
1981-08-28 15:15:21.400 ,1,0,0.,4.8,0.,4.8,0.,4.8,0.,4.8
1981-08-28 15:15:26.200 ,1,0,0.,4.8,0.,4.8,0.,4.8,0.,4.8
1981-08-28 15:15:31.000 ,1,0,0.,4.8,0.,4.8,0.,4.8,0.,4.8
1981-08-28 15:15:35.800 ,1,0,0.,4.8,0.,4.8,0.,4.8,0.,4.8
1981-08-28 15:15:40.600 ,1,0,0.,4.8,0.,4.8,0.,4.8,0.,4.8
1981-08-28 15:15:45.400 ,1,0,0.,4.8,0.,4.8,0.,4.8,0.,4.8
1981-08-28 15:15:50.200 ,1,0,0.,4.8,0.,4.8,0.,4.8,0.,4.8
1981-08-28 15:15:55.000 ,1,0,0.,4.8,0.,4.8,0.,4.8,0.,4.8
1981-08-28 15:16:47.800 ,0,0,0.,4.8,0.,4.8,1.,4.8,0.,4.8
1981-08-28 15:16:52.600 ,0,0,1.,4.8,1.,4.8,0.,4.8,0.,4.8
1981-08-28 15:16:57.400 ,0,0,1.,4.8,0.,4.8,0.,4.8,0.,4.8
1981-08-28 15:17:02.200 ,0,0,0.,4.8,0.,4.8,0.,4.8,0.,4.8
1981-08-28 15:17:07.000 ,0,0,0.,4.8,0.,4.8,0.,4.8,0.,4.8
1981-08-28 15:17:11.800 ,0,0,1.,4.8,0.,4.8,0.,4.8,0.,4.8
1981-08-28 15:17:16.600 ,0,0,0.,4.8,0.,4.8,0.,4.8,0.,4.8
1981-08-28 15:17:21.400 ,0,0,1.,4.8,0.,4.8,0.,4.8,0.,4.8
1981-08-28 15:17:26.200 ,0,0,1.,4.8,0.,4.8,0.,4.8,0.,4.8
1981-08-28 15:17:31.000 ,0,0,0.,4.8,0.,4.8,0.,4.8,0.,4.8
1981-08-28 15:17:35.800 ,1,0,1.,4.8,0.,4.8,0.,4.8,0.,4.8
1981-08-28 15:17:40.600 ,1,0,0.,4.8,0.,4.8,0.,4.8,0.,4.8
1981-08-28 15:17:45.400 ,1,0,1.,4.8,0.,4.8,0.,4.8,0.,4.8
1981-08-28 15:17:50.200 ,1,0,1.,4.8,0.,4.8,0.,4.8,0.,4.8
1981-08-28 15:17:55.000 ,1,0,0.,4.8,0.,4.8,0.,4.8,0.,4.8
1981-08-28 15:17:59.800 ,1,0,0.,4.8,0.,4.8,0.,4.8,0.,4.8
1981-08-28 15:18:04.600 ,1,0,0.,4.8,0.,4.8,0.,4.8,0.,4.8
1981-08-28 15:18:09.400 ,1,0,0.,4.8,0.,4.8,0.,4.8,0.,4.8
1981-08-28 15:18:14.200 ,1,0,0.,4.8,0.,4.8,0.,4.8,0.,4.8
1981-08-28 15:18:19.000 ,1,0,0.,4.8,0.,4.8,0.,4.8,0.,4.8
1981-08-28 15:18:23.800 ,2,0,0.,4.8,0.,4.8,0.,4.8,0.,4.8
1981-08-28 15:18:28.600 ,2,0,0.,4.8,0.,4.8,0.,4.8,0.,4.8
1981-08-28 15:18:33.400 ,2,0,1.,4.8,0.,4.8,0.,4.8,0.,4.8
1981-08-28 15:18:38.200 ,2,0,0.,4.8,0.,4.8,0.,4.8,0.,4.8
1981-08-28 15:18:43.000 ,2,0,0.,4.8,0.,4.8,0.,4.8,0.,4.8
1981-08-28 15:18:47.800 ,2,0,0.,4.8,0.,4.8,0.,4.8,0.,4.8
1981-08-28 15:18:52.600 ,2,0,1.,4.8,0.,4.8,0.,4.8,0.,4.8
1981-08-28 15:18:57.400 ,2,0,0.,4.8,0.,4.8,0.,4.8,0.,4.8
1981-08-28 15:19:02.200 ,2,0,0.,4.8,0.,4.8,0.,4.8,0.,4.8
1981-08-28 15:19:07.000 ,2,0,1.,4.8,0.,4.8,0.,4.8,0.,4.8
1981-08-28 15:19:11.800 ,3,0,2.,4.8,0.,4.8,0.,4.8,0.,4.8
1981-08-28 15:19:16.600 ,3,0,0.,4.8,0.,4.8,0.,4.8,0.,4.8
1981-08-28 15:19:21.400 ,3,0,2.,4.8,0.,4.8,0.,4.8,0.,4.8
1981-08-28 15:19:26.200 ,3,0,1.,4.8,0.,4.8,0.,4.8,0.,4.8
1981-08-28 15:19:31.000 ,3,0,0.,4.8,0.,4.8,1.,4.8,0.,4.8
1981-08-28 15:19:35.800 ,3,0,1.,4.8,0.,4.8,0.,4.8,0.,4.8
1981-08-28 15:19:40.600 ,3,0,0.,4.8,0.,4.8,0.,4.8,0.,4.8
1981-08-28 15:19:45.400 ,3,0,0.,4.8,0.,4.8,1.,4.8,0.,4.8
1981-08-28 15:19:50.200 ,3,0,1.,4.8,0.,4.8,0.,4.8,0.,4.8
1981-08-28 15:19:55.000 ,3,0,1.,4.8,0.,4.8,0.,4.8,0.,4.8
1981-08-28 15:19:59.800 ,4,0,0.,4.8,0.,4.8,1.,4.8,0.,4.8
1981-08-28 15:20:04.600 ,4,0,2.,4.8,0.,4.8,0.,4.8,0.,4.8
1981-08-28 15:20:09.400 ,4,0,0.,4.8,0.,4.8,0.,4.8,0.,4.8
1981-08-28 15:20:14.200 ,4,0,0.,4.8,0.,4.8,0.,4.8,0.,4.8
1981-08-28 15:20:19.000 ,4,0,0.,4.8,0.,4.8,0.,4.8,0.,4.8
1981-08-28 15:20:23.800 ,4,0,0.,4.8,1.,4.8,0.,4.8,0.,4.8
1981-08-28 15:20:28.600 ,4,0,0.,4.8,0.,4.8,0.,4.8,0.,4.8
1981-08-28 15:20:33.400 ,4,0,1.,4.8,0.,4.8,0.,4.8,0.,4.8
1981-08-28 15:20:38.200 ,4,0,0.,4.8,0.,4.8,0.,4.8,0.,4.8
1981-08-28 15:20:43.000 ,4,0,0.,4.8,0.,4.8,0.,4.8,0.,4.8
1981-08-28 15:20:47.800 ,5,0,0.,4.8,0.,4.8,0.,4.8,0.,4.8
1981-08-28 15:20:52.600 ,5,0,0.,4.8,0.,4.8,0.,4.8,0.,4.8
1981-08-28 15:20:57.400 ,5,0,0.,4.8,0.,4.8,0.,4.8,0.,4.8
1981-08-28 15:21:02.200 ,5,0,0.,4.8,0.,4.8,0.,4.8,0.,4.8
1981-08-28 15:21:07.000 ,5,0,2.,4.8,0.,4.8,0.,4.8,0.,4.8
1981-08-28 15:21:11.800 ,5,0,0.,4.8,0.,4.8,0.,4.8,0.,4.8
1981-08-28 15:21:16.600 ,5,0,0.,4.8,0.,4.8,0.,4.8,0.,4.8
1981-08-28 15:21:21.400 ,5,0,0.,4.8,0.,4.8,1.,4.8,0.,4.8
1981-08-28 15:21:26.200 ,5,0,0.,4.8,0.,4.8,0.,4.8,0.,4.8
1981-08-28 15:21:31.000 ,5,0,1.,4.8,0.,4.8,0.,4.8,0.,4.8
1981-08-28 15:21:35.800 ,6,0,0.,4.8,0.,4.8,0.,4.8,0.,4.8
1981-08-28 15:21:40.600 ,6,0,1.,4.8,0.,4.8,0.,4.8,0.,4.8
1981-08-28 15:21:45.400 ,6,0,0.,4.8,0.,4.8,0.,4.8,0.,4.8
1981-08-28 15:21:50.200 ,6,0,0.,4.8,0.,4.8,0.,4.8,0.,4.8
1981-08-28 15:21:55.000 ,6,0,0.,4.8,0.,4.8,0.,4.8,0.,4.8
1981-08-28 15:21:59.800 ,6,0,0.,4.8,0.,4.8,0.,4.8,0.,4.8
1981-08-28 15:22:04.600 ,6,0,1.,4.8,0.,4.8,0.,4.8,0.,4.8
1981-08-28 15:22:09.400 ,6,0,0.,4.8,0.,4.8,1.,4.8,0.,4.8
1981-08-28 15:22:14.200 ,6,0,0.,4.8,0.,4.8,0.,4.8,0.,4.8
1981-08-28 15:22:19.000 ,6,0,0.,4.8,0.,4.8,0.,4.8,1.,4.8
1981-08-28 15:22:23.800 ,7,0,0.,4.8,0.,4.8,0.,4.8,0.,4.8
1981-08-28 15:22:28.600 ,7,0,0.,4.8,0.,4.8,0.,4.8,0.,4.8
1981-08-28 15:22:33.400 ,7,0,2.,4.8,0.,4.8,0.,4.8,0.,4.8
1981-08-28 15:22:38.200 ,7,0,0.,4.8,0.,4.8,0.,4.8,0.,4.8
1981-08-28 15:22:43.000 ,7,0,0.,4.8,0.,4.8,0.,4.8,0.,4.8
1981-08-28 15:22:47.800 ,7,0,0.,4.8,0.,4.8,0.,4.8,0.,4.8
1981-08-28 15:22:52.600 ,7,0,0.,4.8,0.,4.8,0.,4.8,0.,4.8
1981-08-28 15:22:57.400 ,7,0,0.,4.8,0.,4.8,0.,4.8,0.,4.8
1981-08-28 15:23:02.200 ,7,0,1.,4.8,0.,4.8,1.,4.8,0.,4.8
1981-08-28 15:23:07.000 ,7,0,0.,4.8,0.,4.8,0.,4.8,0.,4.8
1981-08-28 15:23:11.800 ,7,0,0.,4.8,0.,4.8,0.,4.8,0.,4.8
1981-08-28 15:23:16.600 ,7,0,1.,4.8,0.,4.8,0.,4.8,0.,4.8
1981-08-28 15:23:21.400 ,7,0,0.,4.8,0.,4.8,0.,4.8,0.,4.8
1981-08-28 15:23:26.200 ,7,0,0.,4.8,0.,4.8,0.,4.8,0.,4.8
1981-08-28 15:23:31.000 ,7,0,0.,4.8,0.,4.8,0.,4.8,0.,4.8
1981-08-28 15:23:35.800 ,6,0,0.,4.8,0.,4.8,0.,4.8,0.,4.8
1981-08-28 15:23:40.600 ,6,0,1.,4.8,0.,4.8,0.,4.8,0.,4.8
1981-08-28 15:23:45.400 ,6,0,0.,4.8,0.,4.8,0.,4.8,0.,4.8
1981-08-28 15:23:50.200 ,6,0,0.,4.8,0.,4.8,0.,4.8,0.,4.8
1981-08-28 15:23:55.000 ,6,0,1.,4.8,0.,4.8,0.,4.8,0.,4.8
1981-08-28 15:23:59.800 ,5,0,0.,4.8,1.,4.8,0.,4.8,0.,4.8
1981-08-28 15:24:04.600 ,5,0,1.,4.8,0.,4.8,0.,4.8,0.,4.8
1981-08-28 15:24:09.400 ,5,0,0.,4.8,0.,4.8,1.,4.8,0.,4.8
1981-08-28 15:24:14.200 ,5,0,0.,4.8,0.,4.8,0.,4.8,0.,4.8
1981-08-28 15:24:19.000 ,5,0,0.,4.8,0.,4.8,0.,4.8,0.,4.8
1981-08-28 15:24:23.800 ,4,0,1.,4.8,0.,4.8,0.,4.8,0.,4.8
1981-08-28 15:24:28.600 ,4,0,0.,4.8,0.,4.8,1.,4.8,0.,4.8
1981-08-28 15:24:33.400 ,4,0,2.,4.8,0.,4.8,0.,4.8,0.,4.8
1981-08-28 15:24:38.200 ,4,0,1.,4.8,0.,4.8,0.,4.8,0.,4.8
1981-08-28 15:24:43.000 ,4,0,0.,4.8,0.,4.8,0.,4.8,0.,4.8
1981-08-28 15:24:47.800 ,3,0,3.,4.8,0.,4.8,0.,4.8,0.,4.8
1981-08-28 15:24:52.600 ,3,0,0.,4.8,0.,4.8,0.,4.8,0.,4.8
1981-08-28 15:24:57.400 ,3,0,0.,4.8,0.,4.8,0.,4.8,0.,4.8
1981-08-28 15:25:02.200 ,3,0,0.,4.8,0.,4.8,1.,4.8,0.,4.8
1981-08-28 15:25:07.000 ,3,0,0.,4.8,0.,4.8,0.,4.8,0.,4.8
1981-08-28 15:25:11.800 ,2,0,0.,4.8,0.,4.8,0.,4.8,0.,4.8
1981-08-28 15:25:16.600 ,2,0,1.,4.8,0.,4.8,0.,4.8,0.,4.8
1981-08-28 15:25:21.400 ,2,0,0.,4.8,0.,4.8,0.,4.8,0.,4.8
1981-08-28 15:25:26.200 ,2,0,0.,4.8,0.,4.8,0.,4.8,0.,4.8
1981-08-28 15:25:31.000 ,2,0,0.,4.8,0.,4.8,1.,4.8,0.,4.8
1981-08-28 15:25:35.800 ,1,0,1.,4.8,0.,4.8,0.,4.8,0.,4.8
1981-08-28 15:25:40.600 ,1,0,1.,4.8,0.,4.8,0.,4.8,0.,4.8
1981-08-28 15:25:45.400 ,1,0,0.,4.8,0.,4.8,0.,4.8,0.,4.8
1981-08-28 15:25:50.200 ,1,0,0.,4.8,0.,4.8,0.,4.8,0.,4.8
1981-08-28 15:25:55.000 ,1,0,0.,4.8,0.,4.8,0.,4.8,0.,4.8
1981-08-28 15:25:59.800 ,0,0,1.,4.8,0.,4.8,0.,4.8,0.,4.8
1981-08-28 15:26:04.600 ,0,0,0.,4.8,0.,4.8,0.,4.8,0.,4.8
1981-08-28 15:26:09.400 ,0,0,0.,4.8,0.,4.8,0.,4.8,0.,4.8
1981-08-28 15:26:14.200 ,0,0,0.,4.8,0.,4.8,0.,4.8,0.,4.8
1981-08-28 15:26:19.000 ,0,0,0.,4.8,0.,4.8,0.,4.8,0.,4.8
1981-08-28 15:26:23.800 ,0,0,0.,4.8,0.,4.8,0.,4.8,0.,4.8
1981-08-28 15:26:28.600 ,0,0,0.,4.8,0.,4.8,0.,4.8,0.,4.8
1981-08-28 15:26:33.400 ,0,0,0.,4.8,0.,4.8,0.,4.8,0.,4.8
1981-08-28 15:26:38.200 ,0,0,1.,4.8,0.,4.8,0.,4.8,0.,4.8
1981-08-28 15:26:43.000 ,0,0,2.,4.8,0.,4.8,0.,4.8,0.,4.8
1981-08-28 15:26:47.800 ,1,0,0.,4.8,0.,4.8,0.,4.8,0.,4.8
1981-08-28 15:26:52.600 ,1,0,0.,4.8,0.,4.8,0.,4.8,0.,4.8
1981-08-28 15:26:57.400 ,1,0,0.,4.8,0.,4.8,0.,4.8,0.,4.8
1981-08-28 15:27:02.200 ,1,0,0.,4.8,0.,4.8,0.,4.8,0.,4.8
1981-08-28 15:27:07.000 ,1,0,1.,4.8,0.,4.8,0.,4.8,0.,4.8
1981-08-28 15:27:11.800 ,2,0,0.,4.8,0.,4.8,0.,4.8,0.,4.8
1981-08-28 15:27:16.600 ,2,0,0.,4.8,0.,4.8,1.,4.8,0.,4.8
1981-08-28 15:27:21.400 ,2,0,0.,4.8,0.,4.8,0.,4.8,0.,4.8
1981-08-28 15:27:26.200 ,2,0,0.,4.8,0.,4.8,1.,4.8,0.,4.8
1981-08-28 15:27:31.000 ,2,0,0.,4.8,0.,4.8,0.,4.8,0.,4.8
1981-08-28 15:27:35.800 ,3,0,0.,4.8,0.,4.8,0.,4.8,0.,4.8
1981-08-28 15:27:40.600 ,3,0,1.,4.8,0.,4.8,0.,4.8,0.,4.8
1981-08-28 15:27:45.400 ,3,0,1.,4.8,0.,4.8,0.,4.8,0.,4.8
1981-08-28 15:27:50.200 ,3,0,0.,4.8,0.,4.8,0.,4.8,0.,4.8
1981-08-28 15:27:55.000 ,3,0,1.,4.8,0.,4.8,0.,4.8,0.,4.8
1981-08-28 15:27:59.800 ,4,0,0.,4.8,0.,4.8,0.,4.8,0.,4.8
1981-08-28 15:28:04.600 ,4,0,2.,4.8,0.,4.8,0.,4.8,0.,4.8
1981-08-28 15:28:09.400 ,4,0,0.,4.8,0.,4.8,0.,4.8,0.,4.8
1981-08-28 15:28:14.200 ,4,0,0.,4.8,1.,4.8,0.,4.8,0.,4.8
1981-08-28 15:28:19.000 ,4,0,0.,4.8,0.,4.8,0.,4.8,0.,4.8
1981-08-28 15:28:23.800 ,5,0,1.,4.8,0.,4.8,0.,4.8,0.,4.8
1981-08-28 15:28:28.600 ,5,0,1.,4.8,0.,4.8,0.,4.8,0.,4.8
1981-08-28 15:28:33.400 ,5,0,0.,4.8,0.,4.8,0.,4.8,0.,4.8
1981-08-28 15:28:38.200 ,5,0,0.,4.8,0.,4.8,0.,4.8,0.,4.8
1981-08-28 15:28:43.000 ,5,0,0.,4.8,0.,4.8,0.,4.8,0.,4.8
1981-08-28 15:28:47.800 ,6,0,0.,4.8,0.,4.8,0.,4.8,0.,4.8
1981-08-28 15:28:52.600 ,6,0,0.,4.8,0.,4.8,0.,4.8,0.,4.8
1981-08-28 15:28:57.400 ,6,0,0.,4.8,0.,4.8,0.,4.8,0.,4.8
1981-08-28 15:29:02.200 ,6,0,1.,4.8,0.,4.8,0.,4.8,0.,4.8
1981-08-28 15:29:07.000 ,6,0,1.,4.8,0.,4.8,0.,4.8,0.,4.8
1981-08-28 15:29:11.800 ,7,0,0.,4.8,0.,4.8,0.,4.8,0.,4.8
1981-08-28 15:29:16.600 ,7,0,0.,4.8,0.,4.8,0.,4.8,0.,4.8
1981-08-28 15:29:21.400 ,7,0,0.,4.8,0.,4.8,0.,4.8,0.,4.8
1981-08-28 15:29:26.200 ,7,0,0.,4.8,0.,4.8,0.,4.8,0.,4.8
1981-08-28 15:29:31.000 ,7,0,2.,4.8,0.,4.8,0.,4.8,0.,4.8
1981-08-28 15:29:35.800 ,7,0,0.,4.8,0.,4.8,0.,4.8,0.,4.8
1981-08-28 15:29:40.600 ,7,0,2.,4.8,0.,4.8,0.,4.8,0.,4.8
1981-08-28 15:29:45.400 ,7,0,0.,4.8,0.,4.8,0.,4.8,0.,4.8
1981-08-28 15:29:50.200 ,7,0,0.,4.8,0.,4.8,0.,4.8,0.,4.8
1981-08-28 15:29:55.000 ,7,0,0.,4.8,0.,4.8,0.,4.8,0.,4.8
1981-08-28 15:29:59.800 ,7,0,0.,4.8,0.,4.8,0.,4.8,0.,4.8
1981-08-28 15:30:04.600 ,7,0,0.,4.8,0.,4.8,0.,4.8,0.,4.8
1981-08-28 15:30:09.400 ,7,0,0.,4.8,0.,4.8,0.,4.8,0.,4.8
1981-08-28 15:30:14.200 ,7,0,1.,4.8,0.,4.8,0.,4.8,0.,4.8
1981-08-28 15:30:19.000 ,7,0,0.,4.8,0.,4.8,0.,4.8,0.,4.8
1981-08-28 15:30:23.800 ,6,0,0.,4.8,0.,4.8,0.,4.8,0.,4.8
1981-08-28 15:30:28.600 ,6,0,0.,4.8,0.,4.8,0.,4.8,0.,4.8
1981-08-28 15:30:33.400 ,6,0,0.,4.8,0.,4.8,0.,4.8,0.,4.8
1981-08-28 15:30:38.200 ,6,0,0.,4.8,0.,4.8,0.,4.8,0.,4.8
1981-08-28 15:30:43.000 ,6,0,0.,4.8,0.,4.8,0.,4.8,0.,4.8
1981-08-28 15:30:47.800 ,6,0,0.,4.8,0.,4.8,0.,4.8,0.,4.8
1981-08-28 15:30:52.600 ,6,0,0.,4.8,0.,4.8,0.,4.8,0.,4.8
1981-08-28 15:30:57.400 ,6,0,0.,4.8,0.,4.8,0.,4.8,0.,4.8
1981-08-28 15:31:02.200 ,6,0,0.,4.8,0.,4.8,0.,4.8,0.,4.8
1981-08-28 15:31:07.000 ,6,0,0.,4.8,0.,4.8,0.,4.8,0.,4.8
1981-08-28 15:31:11.800 ,5,0,0.,4.8,0.,4.8,0.,4.8,0.,4.8
1981-08-28 15:31:16.600 ,5,0,2.,4.8,0.,4.8,0.,4.8,0.,4.8
1981-08-28 15:31:21.400 ,5,0,0.,4.8,0.,4.8,0.,4.8,0.,4.8
1981-08-28 15:31:26.200 ,5,0,1.,4.8,0.,4.8,0.,4.8,0.,4.8
1981-08-28 15:31:31.000 ,5,0,0.,4.8,0.,4.8,1.,4.8,0.,4.8
1981-08-28 15:31:35.800 ,5,0,0.,4.8,0.,4.8,0.,4.8,0.,4.8
1981-08-28 15:31:40.600 ,5,0,1.,4.8,0.,4.8,0.,4.8,0.,4.8
1981-08-28 15:31:45.400 ,5,0,0.,4.8,0.,4.8,0.,4.8,0.,4.8
1981-08-28 15:31:50.200 ,5,0,0.,4.8,0.,4.8,0.,4.8,0.,4.8
1981-08-28 15:31:55.000 ,5,0,0.,4.8,0.,4.8,0.,4.8,0.,4.8
1981-08-28 15:31:59.800 ,4,0,0.,4.8,0.,4.8,0.,4.8,0.,4.8
1981-08-28 15:32:04.600 ,4,0,0.,4.8,0.,4.8,0.,4.8,0.,4.8
1981-08-28 15:32:09.400 ,4,0,0.,4.8,0.,4.8,0.,4.8,0.,4.8
1981-08-28 15:32:14.200 ,4,0,0.,4.8,0.,4.8,1.,4.8,0.,4.8
1981-08-28 15:32:19.000 ,4,0,1.,4.8,0.,4.8,1.,4.8,0.,4.8
1981-08-28 15:32:23.800 ,4,0,1.,4.8,0.,4.8,1.,4.8,0.,4.8
1981-08-28 15:32:28.600 ,4,0,1.,4.8,0.,4.8,0.,4.8,0.,4.8
1981-08-28 15:32:33.400 ,4,0,0.,4.8,0.,4.8,0.,4.8,0.,4.8
1981-08-28 15:32:38.200 ,4,0,1.,4.8,0.,4.8,0.,4.8,0.,4.8
1981-08-28 15:32:43.000 ,4,0,1.,4.8,0.,4.8,0.,4.8,0.,4.8
1981-08-28 15:32:47.800 ,3,0,0.,4.8,0.,4.8,0.,4.8,0.,4.8
1981-08-28 15:32:52.600 ,3,0,0.,4.8,0.,4.8,0.,4.8,0.,4.8
1981-08-28 15:32:57.400 ,3,0,1.,4.8,1.,4.8,1.,4.8,0.,4.8
1981-08-28 15:33:02.200 ,3,0,0.,4.8,0.,4.8,0.,4.8,0.,4.8
1981-08-28 15:33:07.000 ,3,0,0.,4.8,0.,4.8,0.,4.8,0.,4.8
1981-08-28 15:33:11.800 ,3,0,1.,4.8,0.,4.8,0.,4.8,0.,4.8
1981-08-28 15:33:16.600 ,3,0,0.,4.8,0.,4.8,0.,4.8,0.,4.8
1981-08-28 15:33:21.400 ,3,0,0.,4.8,0.,4.8,0.,4.8,0.,4.8
1981-08-28 15:33:26.200 ,3,0,1.,4.8,0.,4.8,0.,4.8,0.,4.8
1981-08-28 15:33:31.000 ,3,0,1.,4.8,0.,4.8,0.,4.8,0.,4.8
1981-08-28 15:33:35.800 ,2,0,2.,4.8,0.,4.8,0.,4.8,0.,4.8
1981-08-28 15:33:40.600 ,2,0,0.,4.8,0.,4.8,1.,4.8,0.,4.8
1981-08-28 15:33:45.400 ,2,0,0.,4.8,0.,4.8,0.,4.8,0.,4.8
1981-08-28 15:33:50.200 ,2,0,0.,4.8,0.,4.8,0.,4.8,0.,4.8
1981-08-28 15:33:55.000 ,2,0,0.,4.8,0.,4.8,0.,4.8,0.,4.8
1981-08-28 15:33:59.800 ,2,0,0.,4.8,0.,4.8,0.,4.8,0.,4.8
1981-08-28 15:34:04.600 ,2,0,0.,4.8,0.,4.8,0.,4.8,0.,4.8